Time,TemperatureF,DewpointF,PressureIn,WindDirection,WindDirectionDegrees,WindSpeedMPH,WindSpeedGustMPH,Humidity,HourlyPrecipIn,Conditions,Clouds,dailyrainin,SolarRadiationWatts/m^2,SoftwareType,DateUTC
2016-07-29 00:05:00,66.8,47.6,29.92,NNE,19,5.0,-999.0,50,0.00,,,0.00,0,WeatherHawk,2016-07-29 05:05:00,
2016-07-29 00:19:00,66.6,45.7,29.92,NNE,26,0.0,-999.0,47,0.00,,,0.00,0,WeatherHawk,2016-07-29 05:19:00,
2016-07-29 00:29:00,66.3,47.6,29.92,NNE,14,5.0,-999.0,51,0.00,,,0.00,1,WeatherHawk,2016-07-29 05:29:00,
2016-07-29 00:35:00,66.3,48.6,29.91,NNE,15,5.0,-999.0,53,0.00,,,0.00,0,WeatherHawk,2016-07-29 05:35:00,
2016-07-29 00:41:00,66.1,49.0,29.92,NNE,16,2.0,-999.0,54,0.00,,,0.00,0,WeatherHawk,2016-07-29 05:41:00,
2016-07-29 00:48:00,66.1,48.9,29.92,North,7,5.0,-999.0,54,0.00,,,0.00,0,WeatherHawk,2016-07-29 05:48:00,
2016-07-29 00:57:00,65.9,49.3,29.91,NNE,22,0.0,-999.0,55,0.00,,,0.00,1,WeatherHawk,2016-07-29 05:57:00,
2016-07-29 01:06:00,65.9,49.8,29.93,NNE,16,1.0,-999.0,56,0.00,,,0.00,0,WeatherHawk,2016-07-29 06:06:00,
2016-07-29 01:15:00,65.8,50.1,29.93,NNE,27,1.0,-999.0,57,0.00,,,0.00,0,WeatherHawk,2016-07-29 06:15:00,
2016-07-29 01:25:00,65.5,51.7,29.93,NNE,29,5.0,-999.0,61,0.00,,,0.00,0,WeatherHawk,2016-07-29 06:25:00,
2016-07-29 01:31:00,64.9,53.7,29.93,NE,49,5.0,-999.0,67,0.04,,,0.04,0,WeatherHawk,2016-07-29 06:31:00,
2016-07-29 01:37:00,64.6,55.0,29.92,NNE,21,7.0,-999.0,71,0.08,,,0.08,0,WeatherHawk,2016-07-29 06:37:00,
2016-07-29 01:46:00,64.2,57.2,29.92,NE,38,5.0,-999.0,78,0.12,,,0.12,1,WeatherHawk,2016-07-29 06:46:00,
2016-07-29 01:51:00,64.1,58.1,29.92,NE,56,5.0,-999.0,81,0.12,,,0.12,0,WeatherHawk,2016-07-29 06:51:00,
2016-07-29 01:58:00,63.8,58.6,29.92,NNE,22,4.0,-999.0,83,0.12,,,0.12,0,WeatherHawk,2016-07-29 06:58:00,
2016-07-29 02:06:00,63.9,59.6,29.92,NE,47,2.0,-999.0,86,0.04,,,0.12,0,WeatherHawk,2016-07-29 07:06:00,
2016-07-29 02:17:00,64.0,60.4,29.91,NNE,18,4.0,-999.0,88,0.00,,,0.12,0,WeatherHawk,2016-07-29 07:17:00,
2016-07-29 02:25:00,64.0,60.7,29.92,NNE,20,3.0,-999.0,89,0.00,,,0.12,0,WeatherHawk,2016-07-29 07:25:00,
2016-07-29 02:35:00,64.1,61.4,29.92,NE,54,2.0,-999.0,91,0.00,,,0.12,0,WeatherHawk,2016-07-29 07:35:00,
2016-07-29 02:45:00,64.2,61.8,29.91,NNE,19,2.0,-999.0,92,0.00,,,0.12,0,WeatherHawk,2016-07-29 07:45:00,
2016-07-29 02:51:00,64.2,61.9,29.91,NNE,29,3.0,-999.0,92,0.00,,,0.12,0,WeatherHawk,2016-07-29 07:51:00,
2016-07-29 02:56:00,64.3,62.3,29.92,NNE,31,3.0,-999.0,93,0.00,,,0.12,0,WeatherHawk,2016-07-29 07:56:00,
2016-07-29 03:06:00,64.4,62.3,29.91,NNE,12,3.0,-999.0,93,0.00,,,0.12,0,WeatherHawk,2016-07-29 08:06:00,
2016-07-29 03:15:00,64.5,62.7,29.91,North,0,5.0,-999.0,94,0.00,,,0.12,0,WeatherHawk,2016-07-29 08:15:00,
2016-07-29 03:21:00,64.6,62.8,29.91,NNE,21,1.0,-999.0,94,0.00,,,0.12,0,WeatherHawk,2016-07-29 08:21:00,
2016-07-29 03:30:00,64.6,62.8,29.91,NE,50,5.0,-999.0,94,0.00,,,0.12,0,WeatherHawk,2016-07-29 08:30:00,
2016-07-29 03:36:00,64.7,63.3,29.91,NNE,27,3.0,-999.0,95,0.00,,,0.12,0,WeatherHawk,2016-07-29 08:36:00,
2016-07-29 03:45:00,64.9,63.4,29.91,ENE,64,0.0,-999.0,95,0.00,,,0.12,0,WeatherHawk,2016-07-29 08:45:00,
2016-07-29 03:51:00,64.8,63.4,29.91,NNE,26,2.0,-999.0,95,0.00,,,0.12,0,WeatherHawk,2016-07-29 08:51:00,
2016-07-29 03:57:00,65.0,63.5,29.91,NNE,14,1.0,-999.0,95,0.00,,,0.12,0,WeatherHawk,2016-07-29 08:57:00,
2016-07-29 04:06:00,64.9,63.5,29.91,NNE,31,4.0,-999.0,95,0.00,,,0.12,0,WeatherHawk,2016-07-29 09:06:00,
2016-07-29 04:15:00,65.1,63.0,29.92,North,4,5.0,-999.0,93,0.00,,,0.12,0,WeatherHawk,2016-07-29 09:15:00,
2016-07-29 04:26:00,65.0,62.9,29.91,NE,46,0.0,-999.0,93,0.00,,,0.12,0,WeatherHawk,2016-07-29 09:26:00,
2016-07-29 04:36:00,64.9,62.5,29.90,North,7,4.0,-999.0,92,0.00,,,0.12,0,WeatherHawk,2016-07-29 09:36:00,
2016-07-29 04:45:00,64.8,62.7,29.92,NNE,18,0.0,-999.0,93,0.00,,,0.12,0,WeatherHawk,2016-07-29 09:45:00,
2016-07-29 04:50:00,64.8,62.7,29.92,NNE,28,1.0,-999.0,93,0.00,,,0.12,0,WeatherHawk,2016-07-29 09:50:00,
2016-07-29 05:00:00,64.7,62.6,29.92,NE,38,2.0,-999.0,93,0.00,,,0.12,0,WeatherHawk,2016-07-29 10:00:00,
2016-07-29 05:10:00,64.5,62.4,29.92,NE,44,1.0,-999.0,93,0.00,,,0.12,0,WeatherHawk,2016-07-29 10:10:00,
2016-07-29 05:15:00,64.4,62.4,29.91,NE,35,4.0,-999.0,93,0.00,,,0.12,0,WeatherHawk,2016-07-29 10:15:00,
2016-07-29 05:26:00,64.3,62.3,29.91,NE,41,4.0,-999.0,93,0.00,,,0.12,0,WeatherHawk,2016-07-29 10:26:00,
2016-07-29 05:35:00,64.3,61.9,29.92,NNE,27,4.0,-999.0,92,0.00,,,0.12,1,WeatherHawk,2016-07-29 10:35:00,
2016-07-29 05:45:00,64.2,61.8,29.91,North,8,3.0,-999.0,92,0.00,,,0.12,1,WeatherHawk,2016-07-29 10:45:00,
2016-07-29 05:55:00,64.3,61.6,29.91,NNE,26,4.0,-999.0,91,0.00,,,0.12,0,WeatherHawk,2016-07-29 10:55:00,
2016-07-29 06:00:00,64.3,61.6,29.92,NNE,20,7.0,-999.0,91,0.00,,,0.12,3,WeatherHawk,2016-07-29 11:00:00,
2016-07-29 06:06:00,64.3,61.6,29.91,ENE,63,3.0,-999.0,91,0.00,,,0.12,5,WeatherHawk,2016-07-29 11:06:00,
2016-07-29 06:15:00,64.3,61.7,29.91,NE,39,5.0,-999.0,91,0.00,,,0.12,9,WeatherHawk,2016-07-29 11:15:00,
2016-07-29 06:20:00,64.4,61.8,29.91,NE,45,6.0,-999.0,91,0.00,,,0.12,13,WeatherHawk,2016-07-29 11:20:00,
2016-07-29 06:26:00,64.4,61.7,29.91,NNE,17,5.0,-999.0,91,0.00,,,0.12,8,WeatherHawk,2016-07-29 11:26:00,
2016-07-29 06:30:00,64.4,61.7,29.91,NNE,22,0.0,-999.0,91,0.00,,,0.12,6,WeatherHawk,2016-07-29 11:30:00,
2016-07-29 06:40:00,64.4,62.0,29.92,NNE,29,0.0,-999.0,92,0.00,,,0.12,10,WeatherHawk,2016-07-29 11:40:00,
2016-07-29 06:47:00,64.3,62.0,29.92,NE,50,0.0,-999.0,92,0.00,,,0.12,15,WeatherHawk,2016-07-29 11:47:00,
2016-07-29 06:55:00,64.1,62.1,29.92,NE,39,1.0,-999.0,93,0.08,,,0.20,19,WeatherHawk,2016-07-29 11:55:00,
2016-07-29 07:11:00,64.4,63.2,29.92,East,82,2.0,-999.0,96,0.08,,,0.20,23,WeatherHawk,2016-07-29 12:11:00,
2016-07-29 07:20:00,64.7,63.5,29.93,NNE,28,4.0,-999.0,96,0.04,,,0.20,32,WeatherHawk,2016-07-29 12:20:00,
2016-07-29 07:45:00,64.9,63.4,29.92,NNE,29,6.0,-999.0,95,0.00,,,0.20,40,WeatherHawk,2016-07-29 12:45:00,
2016-07-29 07:51:00,65.0,63.3,29.92,NNW,344,6.0,-999.0,94,0.00,,,0.20,38,WeatherHawk,2016-07-29 12:51:00,
2016-07-29 08:01:00,65.2,63.5,29.93,North,351,4.0,-999.0,94,0.00,,,0.20,40,WeatherHawk,2016-07-29 13:01:00,
2016-07-29 08:10:00,65.2,63.1,29.94,NNE,19,3.0,-999.0,93,0.00,,,0.20,53,WeatherHawk,2016-07-29 13:10:00,
2016-07-29 08:16:00,65.3,63.2,29.93,NNE,30,4.0,-999.0,93,0.00,,,0.20,81,WeatherHawk,2016-07-29 13:16:00,
2016-07-29 08:26:00,65.5,62.8,29.93,NNE,24,4.0,-999.0,91,0.00,,,0.20,96,WeatherHawk,2016-07-29 13:26:00,
2016-07-29 08:35:00,66.0,63.0,29.93,NW,322,5.0,-999.0,90,0.00,,,0.20,101,WeatherHawk,2016-07-29 13:35:00,
2016-07-29 08:45:00,66.0,62.3,29.93,NE,41,4.0,-999.0,88,0.00,,,0.20,66,WeatherHawk,2016-07-29 13:45:00,
2016-07-29 08:51:00,66.3,62.6,29.93,NE,38,4.0,-999.0,88,0.00,,,0.20,74,WeatherHawk,2016-07-29 13:51:00,
2016-07-29 08:56:00,66.0,62.3,29.93,North,10,4.0,-999.0,88,0.00,,,0.20,69,WeatherHawk,2016-07-29 13:56:00,
2016-07-29 09:10:00,66.5,62.8,29.93,NNE,31,1.0,-999.0,88,0.00,,,0.20,75,WeatherHawk,2016-07-29 14:10:00,
2016-07-29 09:26:00,66.6,63.0,29.93,NE,45,4.0,-999.0,88,0.00,,,0.20,57,WeatherHawk,2016-07-29 14:26:00,
2016-07-29 09:31:00,66.7,62.7,29.93,NNE,17,5.0,-999.0,87,0.00,,,0.20,81,WeatherHawk,2016-07-29 14:31:00,
2016-07-29 09:38:00,66.9,63.2,29.93,NNE,26,2.0,-999.0,88,0.00,,,0.20,70,WeatherHawk,2016-07-29 14:38:00,
2016-07-29 09:46:00,67.0,62.3,29.94,NNE,32,4.0,-999.0,85,0.00,,,0.20,88,WeatherHawk,2016-07-29 14:46:00,
2016-07-29 09:56:00,67.2,62.2,29.93,NNE,29,5.0,-999.0,84,0.00,,,0.20,108,WeatherHawk,2016-07-29 14:56:00,
2016-07-29 10:16:00,68.5,60.2,29.93,North,7,4.0,-999.0,75,0.00,,,0.20,305,WeatherHawk,2016-07-29 15:16:00,